TimeMDT,TemperatureF,Dew PointF,Humidity,Sea Level PressureIn,VisibilityMPH,Wind Direction,Wind SpeedMPH,Gust SpeedMPH,PrecipitationIn,Events,Conditions,WindDirDegrees,DateUTC
12:12 AM,33.8,33.8,100,30.28,8.0,NW,13.8,-,0.00,,Overcast,320,2013-10-15 06:12:00
12:28 AM,33.8,33.8,100,30.28,8.0,NW,11.5,-,0.00,,Overcast,320,2013-10-15 06:28:00
12:51 AM,34.0,34.0,100,30.35,9.0,NW,12.7,-,0.00,,Overcast,320,2013-10-15 06:51:00
1:04 AM,35.6,33.8,93,30.28,10.0,NW,12.7,-,0.00,,Overcast,320,2013-10-15 07:04:00
1:13 AM,35.6,33.8,93,30.28,10.0,NW,10.4,-,0.00,,Overcast,320,2013-10-15 07:13:00
1:45 AM,35.6,33.8,93,30.28,10.0,NW,11.5,-,0.00,,Overcast,320,2013-10-15 07:45:00
1:51 AM,35.1,34.0,96,30.35,10.0,NW,10.4,-,0.00,,Overcast,320,2013-10-15 07:51:00
2:51 AM,35.1,34.0,96,30.35,10.0,NW,9.2,-,N/A,,Overcast,310,2013-10-15 08:51:00
3:51 AM,35.1,33.1,92,30.34,10.0,WNW,6.9,-,N/A,,Overcast,300,2013-10-15 09:51:00
4:51 AM,34.0,34.0,100,30.34,10.0,West,6.9,-,N/A,,Overcast,280,2013-10-15 10:51:00
5:51 AM,34.0,33.1,96,30.34,10.0,WNW,6.9,-,N/A,,Overcast,290,2013-10-15 11:51:00
6:51 AM,33.1,33.1,100,30.35,10.0,West,6.9,-,N/A,,Mostly Cloudy,280,2013-10-15 12:51:00
7:51 AM,32.0,30.9,96,30.36,10.0,WNW,5.8,-,N/A,,Clear,290,2013-10-15 13:51:00
8:51 AM,33.1,30.9,92,30.37,10.0,WNW,6.9,-,N/A,,Clear,300,2013-10-15 14:51:00
9:51 AM,36.0,32.0,86,30.36,10.0,WNW,8.1,-,N/A,,Clear,290,2013-10-15 15:51:00
10:51 AM,41.0,33.1,73,30.35,10.0,WNW,9.2,-,N/A,,Clear,290,2013-10-15 16:51:00
11:51 AM,45.0,-9999,N/A,30.32,10.0,NNW,13.8,-,N/A,,Unknown,330,2013-10-15 17:51:00
12:51 PM,46.0,27.0,47,30.30,10.0,NNW,12.7,-,N/A,,Clear,340,2013-10-15 18:51:00
1:51 PM,46.9,26.1,44,30.27,10.0,NW,5.8,-,N/A,,Clear,320,2013-10-15 19:51:00
2:51 PM,48.9,25.0,39,30.25,10.0,NNW,9.2,20.7,N/A,,Clear,340,2013-10-15 20:51:00
3:51 PM,48.9,25.0,39,30.23,10.0,NW,12.7,18.4,N/A,,Clear,320,2013-10-15 21:51:00
4:51 PM,48.9,24.1,38,30.21,10.0,WNW,11.5,-,N/A,,Clear,290,2013-10-15 22:51:00
5:51 PM,45.0,25.0,46,30.20,10.0,WNW,6.9,-,N/A,,Clear,290,2013-10-15 23:51:00
6:51 PM,37.9,26.1,62,30.22,10.0,West,6.9,-,N/A,,Clear,270,2013-10-16 00:51:00
7:51 PM,36.0,26.1,67,30.21,10.0,Calm,Calm,-,N/A,,Clear,0,2013-10-16 01:51:00
8:51 PM,33.1,26.1,75,30.21,10.0,SW,4.6,-,N/A,,Clear,230,2013-10-16 02:51:00
9:51 PM,35.1,27.0,72,30.19,10.0,West,3.5,-,N/A,,Clear,270,2013-10-16 03:51:00
10:51 PM,34.0,27.0,75,30.17,10.0,Calm,Calm,-,N/A,,Clear,0,2013-10-16 04:51:00
11:51 PM,34.0,26.1,73,30.14,10.0,SW,9.2,-,N/A,,Clear,220,2013-10-16 05:51:00